Change the Weather History Date:

Saturday, June 22, 2013

  Actual Average Record
Temperature  
Mean Temperature 57 °F 63 °F  
Max Temperature 69 °F 79 °F 94 °F (1988)
Min Temperature 45 °F 47 °F 36 °F (1956)
Degree Days  
Heating Degree Days 8 4  
Month to date heating degree days 94 131  
Since 1 June heating degree days 94 131  
Since 1 July heating degree days 7509 7822  
Cooling Degree Days 0 1  
Month to date cooling degree days 26 13  
Year to date cooling degree days 30 15  
Since 1 June cooling degree days 26 13  
Growing Degree Days 8 (Base 50)    
Moisture  
Dew Point 35 °F    
Average Humidity 47    
Maximum Humidity 66    
Minimum Humidity 28    
Precipitation  
Precipitation 0.00 in 0.02 in 0.16 in (2005)
Month to date precipitation 0.12 0.94  
Year to date precipitation 1.90 5.79  
Sea Level Pressure  
Sea Level Pressure 29.98 in    
Wind  
Wind Speed 12 mph (SSW)    
Max Wind Speed 23 mph    
Max Gust Speed 30 mph    
Visibility 10 miles    
Events      
T = Trace of Precipitation, MM = Missing Value Source: NWS Daily Summary

Daily Weather History Graph

Daily Weather History Graph

Search for Another Location

Airport or City:

Trip Planner

Search our weather history database for the weather conditions in past years. The results will help you decide how hot, cold, wet, or windy it might be!

Date:

Astronomy

Jun. 22, 2013 Rise Set
Actual Time 5:47 AM MDT 9:13 PM MDT
Civil Twilight 5:11 AM MDT 9:49 PM MDT
Nautical Twilight 4:24 AM MDT 10:35 PM MDT
Astronomical Twilight 3:25 AM MDT 11:34 PM MDT
Moon 8:29 PM MDT (6/22) 5:06 AM MDT (6/22)
Length of Visible Light 16h 37m
Length of Day
15h 25m
Waxing Gibbous, 99% of the Moon is Illuminated
Jun 22
Waxing Gibbous
Jun 23
Full
Jun 29
Last Quarter
Jul 8
New
Jul 15
First Quarter

Hourly Weather History & Observations

Time (MDT) Temp. Dew Point Humidity Pressure Visibility Wind Dir Wind Speed Gust Speed Precip Events Conditions
12:53 AM 50.0 °F 33.1 °F 52% 29.96 in 10.0 mi SW 5.8 mph - N/A   Partly Cloudy
1:53 AM 50.0 °F 34.0 °F 54% 29.96 in 10.0 mi SW 5.8 mph - N/A   Mostly Cloudy
2:53 AM 52.0 °F 30.9 °F 45% 29.95 in 10.0 mi SSW 10.4 mph - N/A   Mostly Cloudy
3:53 AM 52.0 °F 30.9 °F 45% 29.96 in 10.0 mi SSW 9.2 mph - N/A   Mostly Cloudy
4:53 AM 50.0 °F 33.1 °F 52% 29.96 in 10.0 mi SSW 12.7 mph - N/A   Partly Cloudy
5:53 AM 48.0 °F 35.1 °F 61% 29.99 in 10.0 mi SSW 12.7 mph - N/A   Mostly Cloudy
6:53 AM 48.0 °F 35.1 °F 61% 30.01 in 10.0 mi SSW 13.8 mph - N/A   Mostly Cloudy
7:53 AM 48.9 °F 37.0 °F 64% 30.01 in 10.0 mi SSW 11.5 mph - N/A   Overcast
8:53 AM 53.1 °F 37.9 °F 57% 30.02 in 10.0 mi South 15.0 mph - N/A   Mostly Cloudy
9:53 AM 55.9 °F 37.0 °F 49% 30.01 in 10.0 mi SW 11.5 mph - N/A   Scattered Clouds
10:53 AM 59.0 °F 37.0 °F 44% 30.01 in 10.0 mi SSW 15.0 mph 24.2 mph N/A   Scattered Clouds
11:53 AM 60.1 °F 39.0 °F 46% 30.02 in 10.0 mi SSW 12.7 mph 20.7 mph N/A   Scattered Clouds
12:53 PM 64.0 °F 39.0 °F 40% 30.01 in 10.0 mi SSW 16.1 mph 25.3 mph N/A   Mostly Cloudy
1:51 PM 66.2 °F 35.6 °F 32% 30.07 in 10.0 mi SW 17.3 mph 27.6 mph N/A   Partly Cloudy
1:53 PM 66.0 °F 35.1 °F 32% 29.99 in 10.0 mi SW 17.3 mph 27.6 mph N/A   Partly Cloudy
2:53 PM 66.9 °F 35.1 °F 31% 29.97 in 10.0 mi SSW 16.1 mph 29.9 mph N/A   Scattered Clouds
3:53 PM 66.9 °F 35.1 °F 31% 29.96 in 10.0 mi SSW 17.3 mph - N/A   Mostly Cloudy
4:53 PM 69.1 °F 35.1 °F 29% 29.95 in 10.0 mi SSW 18.4 mph 26.5 mph N/A   Scattered Clouds
5:53 PM 68.0 °F 35.1 °F 30% 29.95 in 10.0 mi South 16.1 mph 23.0 mph N/A   Scattered Clouds
6:53 PM 68.0 °F 35.1 °F 30% 29.94 in 10.0 mi South 15.0 mph - N/A   Scattered Clouds
7:53 PM 66.0 °F 36.0 °F 33% 29.94 in 10.0 mi SSW 15.0 mph - N/A   Scattered Clouds
8:53 PM 64.0 °F 36.0 °F 35% 29.94 in 10.0 mi South 9.2 mph - N/A   Clear
9:53 PM 62.1 °F 36.0 °F 38% 29.96 in 10.0 mi SSW 8.1 mph - N/A   Overcast
10:53 PM 57.9 °F 33.1 °F 39% 29.96 in 10.0 mi South 5.8 mph - N/A   Clear
11:53 PM 57.0 °F 30.0 °F 36% 29.96 in 10.0 mi South 4.6 mph - N/A   Clear